Culdrose, United Kingdom

2:22 PM GMT on March 23, 2017 (GMT +0000)
Culdrose Navy

Weather History for EGDR - August, 2012

Change the Weather History Date:

Tuesday, August 21, 2012

  Actual Average Record
Temperature  
Mean Temperature 62 °F -  
Max Temperature 65 °F 62 °F 68 °F (1997)
Min Temperature 59 °F 53 °F 43 °F (2014)
Degree Days  
Heating Degree Days 3    
Growing Degree Days 12 (Base 50)    
Moisture  
Dew Point 60 °F    
Average Humidity 95    
Maximum Humidity 100    
Minimum Humidity 85    
Precipitation  
Precipitation 0.01 in - - ()
Sea Level Pressure  
Sea Level Pressure 30.08 in    
Wind  
Wind Speed 8 mph ()    
Max Wind Speed 15 mph    
Max Gust Speed 26 mph    
Visibility 6.8 miles    
Events Rain    
Averages and records for this station are not official NWS values.
T = Trace of Precipitation, MM = Missing Value Source: Averaged Metar Reports

Daily Weather History Graph

Daily Weather History Graph

Search for Another Location

Airport or City:

Trip Planner

Search our weather history database for the weather conditions in past years. The results will help you decide how hot, cold, wet, or windy it might be!

Date:

Astronomy

Aug. 21, 2012 Rise Set
Actual Time 6:19 AM BST 8:27 PM BST
Civil Twilight 5:44 AM BST 9:02 PM BST
Nautical Twilight 5:00 AM BST 9:45 PM BST
Astronomical Twilight 4:11 AM BST 10:34 PM BST
Moon 11:08 AM BST (8/21) 9:41 PM BST (8/21)
Length of Visible Light 15h 17m
Length of Day
14h 07m
Waxing Crescent, 17% of the Moon is Illuminated
Aug 21
Waxing Crescent
Aug 24
First Quarter
Aug 31
Full
Sep 8
Last Quarter
Sep 16
New

Hourly Weather History & Observations

Time (BST) Temp. Dew Point Humidity Pressure Visibility Wind Dir Wind Speed Gust Speed Precip Events Conditions
12:50 AM 61 °F 60 °F 97% 30.14 in 9 mi SW 4.6 mph - -   Mist
12:50 AM 60.8 °F 60.8 °F 100% 30.12 in 6.2 mi SW 4.6 mph - N/A   Mostly Cloudy
1:50 AM 60.8 °F 60.8 °F 100% 30.12 in 6.2 mi SW 6.9 mph - N/A   Mostly Cloudy
2:50 AM 60.8 °F 60.8 °F 100% 30.12 in 6.2 mi SW 6.9 mph - N/A   Mostly Cloudy
3:50 AM 61 °F 60 °F 96% 30.12 in 12 mi SW 8.1 mph - -   Mostly Cloudy
3:50 AM 60.8 °F 60.8 °F 100% 30.12 in 6.2 mi SW 8.1 mph - N/A   Scattered Clouds
4:50 AM 60.8 °F 60.8 °F 100% 30.09 in 6.2 mi SW 6.9 mph - N/A   Mostly Cloudy
5:50 AM 60.8 °F 60.8 °F 100% 30.06 in 6.2 mi WSW 1.2 mph - N/A   Mostly Cloudy
6:50 AM 61 °F 60 °F 97% 30.08 in 7 mi SSW 6.9 mph - -   Mist
6:50 AM 60.8 °F 60.8 °F 100% 30.06 in 6.2 mi SSW 6.9 mph - N/A   Mostly Cloudy
7:50 AM 62.6 °F 60.8 °F 94% 30.09 in 5.0 mi SW 9.2 mph - N/A   Mostly Cloudy
8:50 AM 62.6 °F 60.8 °F 94% 30.06 in 6.2 mi SW 9.2 mph - N/A   Mostly Cloudy
9:50 AM 63 °F 62 °F 94% 30.09 in 9 mi WSW 9.2 mph - -   Mist
9:50 AM 62.6 °F 62.6 °F 100% 30.06 in 6.2 mi WSW 9.2 mph - N/A   Mostly Cloudy
10:50 AM 64.4 °F 62.6 °F 94% 30.06 in 6.2 mi WSW 11.5 mph - N/A   Mostly Cloudy
11:50 AM 64.4 °F 62.6 °F 94% 30.06 in 6.2 mi SW 12.7 mph - N/A   Mostly Cloudy
12:50 PM 63 °F 62 °F 96% 30.08 in 2 mi WSW 13.8 mph - - Rain Light Rain Showers
12:50 PM 62.6 °F 62.6 °F 100% 30.06 in 2.5 mi WSW 13.8 mph 25.3 mph N/A   Mostly Cloudy
1:50 PM 62.6 °F 60.8 °F 94% 30.06 in 6.2 mi WSW 10.4 mph - N/A   Haze
2:50 PM 64.4 °F 62.6 °F 94% 30.06 in 6.2 mi WSW 11.5 mph - N/A   Partly Cloudy
3:50 PM 65 °F 63 °F 91% 30.06 in 12 mi WSW 11.5 mph - -   Partly Cloudy
3:50 PM 64.4 °F 62.6 °F 94% 30.06 in 6.2 mi WSW 11.5 mph 23.0 mph N/A   Scattered Clouds
4:50 PM 64.4 °F 62.6 °F 94% 30.04 in 6.2 mi WSW 13.8 mph 26.5 mph N/A   Partly Cloudy
5:50 PM 64.4 °F 60.8 °F 88% 30.06 in 6.2 mi WSW 15.0 mph 26.5 mph N/A   Haze
6:50 PM 63 °F 60 °F 85% 30.06 in 11 mi West 13.8 mph - -   Haze
6:50 PM 62.6 °F 59.0 °F 88% 30.04 in 6.2 mi West 13.8 mph - N/A   Haze
7:50 PM 60.8 °F 57.2 °F 88% 30.06 in 6.2 mi West 15.0 mph - N/A   Haze
8:50 PM 59.0 °F 57.2 °F 94% 30.06 in 6.2 mi West 11.5 mph - N/A   Partly Cloudy
9:50 PM 59 °F 56 °F 88% 30.11 in 12 mi West 11.5 mph - -   Partly Cloudy
9:50 PM 59.0 °F 57.2 °F 94% 30.09 in 6.2 mi West 11.5 mph - N/A   Partly Cloudy
10:50 PM 59.0 °F 57.2 °F 94% 30.09 in 6.2 mi West 10.4 mph - N/A   Partly Cloudy
11:50 PM 59.0 °F 57.2 °F 94% 30.09 in 6.2 mi West 9.2 mph - N/A   Partly Cloudy